Weather History for Mobile, AL

Change the Weather History Date:

Monday, April 2, 2012

  Actual Average Record
Temperature  
Mean Temperature 76 °F 63 °F  
Max Temperature 86 °F 75 °F 86 °F (1927)
Min Temperature 65 °F 52 °F 32 °F (1881)
Degree Days  
Heating Degree Days 0 4  
Month to date heating degree days 0 8  
Since 1 July heating degree days 1118 1639  
Cooling Degree Days 11 2  
Month to date cooling degree days 22 4  
Year to date cooling degree days 217 59  
Growing Degree Days 25 (Base 50)    
Moisture  
Dew Point 67 °F    
Average Humidity 74    
Maximum Humidity 93    
Minimum Humidity 55    
Precipitation  
Precipitation 0.35 in 0.17 in 2.54 in (1988)
Month to date precipitation 0.35 0.36  
Year to date precipitation 16.53 17.27  
Snow  
Snow 0.00 in 0.00 in - ()
Month to date snowfall 0.0 0.0  
Since 1 July snowfall 0.0 0.2  
Snow Depth 0.00 in    
Sea Level Pressure  
Sea Level Pressure 29.88 in    
Wind  
Wind Speed 7 mph (South)    
Max Wind Speed 24 mph    
Max Gust Speed 30 mph    
Visibility 8 miles    
Events Fog , Rain , Thunderstorm    
T = Trace of Precipitation, MM = Missing Value Source: NWS Daily Summary

Daily Weather History Graph

Daily Weather History Graph

Search for Another Location

Airport:

Trip Planner

Search our weather history database for the weather conditions in past years. The results will help you decide how hot, cold, wet, or windy it might be!

Date:

Astronomy

Apr. 02, 2012 Rise Set
Actual Time 6:40 AM CDT 7:12 PM CDT
Civil Twilight 6:15 AM CDT 7:37 PM CDT
Nautical Twilight 5:47 AM CDT 8:05 PM CDT
Astronomical Twilight 5:18 AM CDT 8:34 PM CDT
Moon 3:05 PM CDT (4/2) 3:35 AM CDT (4/2)
Length of Visible Light 13h 21m
Length of Day
12h 32m
Waxing Gibbous, 78% of the Moon is Illuminated
Apr 2
Waxing Gibbous
Apr 6
Full
Apr 13
Last Quarter
Apr 21
New
Apr 29
First Quarter

Hourly Weather History & Observations

Time (CDT) Temp. Heat Index Dew Point Humidity Pressure Visibility Wind Dir Wind Speed Gust Speed Precip Events Conditions
12:56 AM 70.0 °F - 66.9 °F 90% 29.87 in 9.0 mi SSW 5.8 mph - N/A   Partly Cloudy
1:56 AM 69.1 °F - 66.9 °F 93% 29.86 in 6.0 mi SSW 5.8 mph - N/A   Partly Cloudy
2:56 AM 70.0 °F - 66.9 °F 90% 29.86 in 8.0 mi SSW 5.8 mph - N/A   Scattered Clouds
3:25 AM 69.8 °F - 66.2 °F 88% 29.86 in 8.0 mi SSW 4.6 mph - N/A   Mostly Cloudy
3:45 AM 69.8 °F - 66.2 °F 88% 29.85 in 8.0 mi SSW 5.8 mph - N/A   Scattered Clouds
3:56 AM 70.0 °F - 66.9 °F 90% 29.84 in 8.0 mi SSW 6.9 mph - N/A   Partly Cloudy
4:56 AM 69.1 °F - 66.9 °F 93% 29.85 in 7.0 mi SSW 5.8 mph - N/A   Clear
5:56 AM 68.0 °F - 66.0 °F 93% 29.85 in 5.0 mi Calm Calm - N/A Fog Partly Cloudy
6:04 AM 68.0 °F - 66.2 °F 94% 29.86 in 6.0 mi Calm Calm - N/A Fog Mostly Cloudy
6:18 AM 66.2 °F - 66.2 °F 100% 29.86 in 3.0 mi Calm Calm - N/A Fog Mostly Cloudy
6:20 AM 66.2 °F - 64.4 °F 94% 29.86 in 3.0 mi Calm Calm - N/A Fog Mostly Cloudy
6:31 AM 68.0 °F - 66.2 °F 94% 29.86 in 0.8 mi Calm Calm - N/A   Mostly Cloudy
6:41 AM 66.2 °F - 64.4 °F 94% 29.87 in 0.5 mi Calm Calm - N/A Fog Fog
6:54 AM 66.2 °F - 64.4 °F 94% 29.87 in 3.0 mi Calm Calm - N/A Fog Mostly Cloudy
6:56 AM 66.9 °F - 64.9 °F 93% 29.86 in 5.0 mi Calm Calm - N/A Fog Mostly Cloudy
7:22 AM 66.2 °F - 64.4 °F 94% 29.88 in 5.0 mi Calm Calm - N/A   Scattered Clouds
7:56 AM 71.1 °F - 69.1 °F 93% 29.88 in 7.0 mi Calm Calm - N/A   Scattered Clouds
8:04 AM 71.6 °F - 69.8 °F 94% 29.89 in 7.0 mi Calm Calm - N/A   Mostly Cloudy
8:12 AM 71.6 °F - 69.8 °F 94% 29.89 in 7.0 mi South 3.5 mph - N/A   Scattered Clouds
8:56 AM 73.9 °F - 70.0 °F 87% 29.89 in 10.0 mi South 4.6 mph - N/A   Scattered Clouds
9:20 AM 75.2 °F - 71.6 °F 89% 29.91 in 10.0 mi South 5.8 mph - N/A   Scattered Clouds
9:38 AM 78.8 °F - 71.6 °F 78% 29.91 in 10.0 mi South 5.8 mph - N/A   Mostly Cloudy
9:56 AM 78.1 °F - 69.1 °F 74% 29.91 in 10.0 mi South 8.1 mph - N/A   Mostly Cloudy
10:26 AM 80.6 °F 83.2 °F 68.0 °F 65% 29.91 in 10.0 mi South 3.5 mph - N/A   Scattered Clouds
10:56 AM 82.0 °F 84.9 °F 68.0 °F 62% 29.91 in 10.0 mi Variable 5.8 mph - N/A   Scattered Clouds
11:56 AM 82.9 °F 85.4 °F 66.9 °F 58% 29.90 in 10.0 mi SE 10.4 mph - N/A   Scattered Clouds
12:56 PM 84.9 °F 88.2 °F 68.0 °F 57% 29.88 in 10.0 mi SE 12.7 mph - N/A   Mostly Cloudy
1:20 PM 82.4 °F 86.3 °F 69.8 °F 66% 29.89 in 10.0 mi SE 15.0 mph 19.6 mph N/A   Mostly Cloudy
1:56 PM 84.9 °F 87.1 °F 66.0 °F 53% 29.87 in 10.0 mi South 11.5 mph 21.9 mph N/A   Mostly Cloudy
2:56 PM 84.9 °F 87.6 °F 66.9 °F 55% 29.85 in 10.0 mi South 13.8 mph - N/A   Mostly Cloudy
3:56 PM 82.9 °F 85.4 °F 66.9 °F 58% 29.83 in 10.0 mi South 19.6 mph 26.5 mph N/A   Mostly Cloudy
4:22 PM 82.4 °F 84.6 °F 66.2 °F 58% 29.84 in 10.0 mi South 15.0 mph 25.3 mph N/A   Mostly Cloudy
4:47 PM 80.6 °F 82.7 °F 66.2 °F 61% 29.85 in 10.0 mi South 20.7 mph 25.3 mph N/A   Mostly Cloudy
4:56 PM 80.1 °F 82.1 °F 66.0 °F 62% 29.84 in 10.0 mi South 18.4 mph 25.3 mph N/A   Mostly Cloudy
5:56 PM 80.1 °F 82.1 °F 66.0 °F 62% 29.85 in 10.0 mi South 9.2 mph - N/A   Scattered Clouds
6:56 PM 77.0 °F - 66.0 °F 69% 29.88 in 10.0 mi South 5.8 mph - N/A   Scattered Clouds
7:56 PM 73.0 °F - 66.0 °F 79% 29.88 in 10.0 mi Calm Calm - N/A   Scattered Clouds
8:56 PM 72.0 °F - 66.9 °F 84% 29.91 in 7.0 mi Calm Calm - N/A Thunderstorm Thunderstorm
9:21 PM 71.6 °F - 62.6 °F 73% 29.93 in 7.0 mi NNW 24.2 mph 29.9 mph N/A Thunderstorm Thunderstorm
9:56 PM 69.1 °F - 62.1 °F 78% 29.95 in 7.0 mi NW 8.1 mph 23.0 mph N/A Thunderstorm Thunderstorm
10:56 PM 66.0 °F - 62.1 °F 87% 29.95 in 6.0 mi NNE 10.4 mph - 0.35 in Rain , Thunderstorm Light Thunderstorms and Rain
11:56 PM 66.0 °F - 63.0 °F 90% 29.91 in 10.0 mi NE 5.8 mph - 0.00 in Rain Light Rain